[[{"header":{"parameterUnit":"m.s-1","parameterCategory":1,"la1":30.2991,"la2":30.254,"lo1":-89.0895,"lo2":-89.0444,"dy":0.0017,"dx":0.0017,"nx":28,"ny":28,"refTime":"2024-06-02T09:00:00:Z","depth":0,"parameterNumber":2,"parameterNumberName":"U-component_of_WINDS"},"data":[0,0,0,0,0,0,0,0,0,0,0,0,0,0,0,0,0,0,0,0,0,0,0,0,0,0,0,0,0,0,0,0,0,0,0,0,0,0,0,0,0,0,0,0,0,0,0,0,0,0,0,0,0,0,0,0,0,0,-1.9423,-1.9423,0,-1.9445,-1.9445,-1.9445,-1.9416,-1.9415,-1.9414,-1.9413,-1.9435,-1.9437,-1.9438,0,0,0,0,0,0,0,0,0,0,0,0,0,-1.9357,-1.9358,-1.9423,-1.9423,-1.9424,-1.9445,-1.9445,-1.9445,-1.9416,-1.9415,-1.9413,-1.9412,-1.9435,-1.9436,-1.9438,0,0,0,0,0,0,0,0,0,0,0,0,0,-1.9383,-1.9358,-1.9423,-1.9412,-1.9411,-1.9445,-1.9445,-1.9446,-1.9416,-1.9415,-1.9413,-1.9412,-1.9434,-1.9436,-1.9439,-1.9485,0,0,-1.9446,-1.9447,0,0,0,0,0,0,0,0,-1.9381,-1.9385,-1.9413,-1.9412,-1.9412,-1.9426,-1.943,-1.9459,-1.9417,-1.9414,-1.9413,-1.9411,-1.9433,-1.9436,-1.9443,-1.9486,-1.9487,-1.9446,-1.9447,-1.9448,-1.9449,0,0,0,0,0,0,0,-1.9379,-1.9384,-1.9432,-1.9413,-1.9413,-1.9405,-1.9407,-1.9435,-1.9432,-1.9414,-1.9412,-1.9415,-1.9433,-1.9441,-1.9444,-1.9487,-1.9446,-1.9448,-1.945,-1.945,-1.9569,-1.957,0,0,0,0,0,0,-1.9379,-1.9383,-1.9431,-1.9432,-1.9392,-1.9408,-1.941,-1.9423,-1.9432,-1.9432,-1.9416,-1.9414,-1.9438,-1.9441,-1.9444,-1.9498,-1.9448,-1.9451,-1.9452,-1.9567,-1.9569,-1.9571,0,0,0,0,0,0,-1.9378,-1.9384,-1.943,-1.9407,-1.9412,-1.9411,-1.9425,-1.9424,-1.9432,-1.9434,-1.9433,-1.9425,-1.9437,-1.9441,-1.9475,-1.9499,-1.9452,-1.9454,-1.9565,-1.9568,-1.957,-1.9607,0,0,0,0,0,0,-1.9376,-1.9383,-1.9401,-1.9408,-1.9414,-1.9461,-1.9427,-1.9426,-1.9437,-1.9433,-1.9442,-1.9442,-1.9436,-1.9472,-1.9477,-1.9501,-1.9456,-1.9563,-1.9566,-1.9569,-1.9604,-1.9611,-1.9617,0,0,0,0,0,-1.9374,-1.9411,-1.9402,-1.9408,-1.9436,-1.9462,-1.9465,-1.9457,-1.9439,-1.9456,-1.9457,-1.9442,-1.9496,-1.9475,-1.9482,-1.9506,-1.9561,-1.9565,-1.9569,-1.9601,-1.961,-1.9617,0,0,0,0,0,0,-1.9407,-1.9411,-1.9402,-1.9442,-1.9452,-1.9457,-1.9479,-1.9467,-1.9482,-1.9478,-1.9468,-1.947,-1.9506,-1.951,-1.9487,-1.9552,-1.9525,-1.9531,-1.9548,-1.9556,-1.9562,-1.956,-1.9458,0,0,0,0,0,-1.9419,-1.944,-1.9443,-1.9478,-1.9483,-1.948,-1.9492,-1.9485,-1.9494,-1.9498,-1.9502,-1.9512,-1.9531,-1.9544,-1.9562,-1.9605,-1.9606,-1.9625,-1.9632,-1.9637,-1.9641,-1.9664,-1.9672,-1.9584,-1.9584,-1.9584,0,0,-1.9444,-1.9449,-1.9463,-1.9485,-1.9492,-1.9513,-1.9484,-1.9508,-1.9524,-1.9502,-1.9534,-1.9537,-1.9548,-1.9587,-1.9604,-1.9591,-1.9666,-1.9642,-1.9646,-1.9647,-1.9668,-1.9677,-1.9684,-1.9586,-1.9586,-1.9585,0,0,-1.95,-1.9506,-1.9536,-1.9543,-1.9554,-1.9552,-1.9559,-1.9566,-1.9567,-1.9599,-1.9583,-1.9602,-1.9635,-1.9643,-1.9652,-1.9712,-1.9698,-1.9718,-1.9751,-1.9773,-1.978,-1.9786,-1.9806,-1.9814,-1.9723,-1.9723,-1.9723,0,-1.9529,-1.9561,-1.9553,-1.9578,-1.9588,-1.9569,-1.9599,-1.9607,-1.9623,-1.963,-1.9616,-1.9657,-1.9663,-1.9703,-1.9717,-1.9725,-1.9733,-1.9716,-1.978,-1.9786,-1.9791,-1.981,-1.9818,-1.9725,-1.9725,-1.9724,-1.9724,0,-1.9597,-1.9619,-1.9642,-1.9657,-1.967,-1.9698,-1.9693,-1.9707,-1.97,-1.9699,-1.9732,-1.9739,-1.9757,-1.9766,-1.9759,-1.9805,-1.9797,-1.9781,-1.9754,-1.9802,-1.9819,-1.9827,-1.9728,-1.9727,-1.9727,-1.9726,0,0,-1.9673,-1.9684,-1.9692,-1.9699,-1.9709,-1.9727,-1.9754,-1.9771,-1.9783,-1.9795,-1.9817,-1.9846,-1.9831,-1.9841,-1.9835,-1.9855,-1.99,-1.9836,-1.9836,-1.9847,-1.995,-1.9961,-1.9969,-1.9892,-1.9893,-1.9894,-1.9949,0,-1.9728,-1.9774,-1.9767,-1.9811,-1.9832,-1.9814,-1.9838,-1.9847,-1.9847,-1.9865,-1.9865,-1.9885,-1.9865,-1.9871,-1.989,-1.9891,-1.992,-1.9887,-1.9911,-1.9912,-1.9907,-1.9979,-1.999,-2.0041,-1.9956,-1.9957,-1.9958,0,-1.9798,-1.9813,-1.9859,-1.9865,-1.9874,-1.9895,-1.991,-1.9928,-1.9937,-1.9936,-1.9947,-1.9938,-1.9964,-1.9938,-1.9975,-1.9952,-1.9962,-1.9964,-1.9965,-1.9966,-1.9937,-1.998,-2.0057,-2.0065,-1.9969,-1.9968,-1.9967,0,-1.9848,-1.9879,-1.991,-1.9916,-1.9926,-1.9941,-1.9945,-1.9954,-1.9965,-1.9979,-1.9986,-2.0003,-2.0012,-2.0026,-2.0021,-2.0002,-2.0058,-2.0031,-2.0057,-2.0057,-2.0068,-2.0067,-2.0147,-2.0077,-2.0077,-2.0077,-2.0077,0,-1.991,-1.9938,-1.9932,-1.9951,-1.9983,-1.9975,-2.0006,-2.0009,-2.0017,-2.0036,-2.0023,-2.0041,-2.0034,-2.0052,-2.0049,-2.0079,-2.0083,-2.0083,-2.0081,-2.0083,-2.0083,-2.0088,-2.0084,-2.0079,-2.0078,-2.0078,-2.0078,0,-1.997,-1.9967,-2.0,-2.0006,-2.0008,-2.0031,-2.0036,-2.0054,-2.0054,-2.0078,-2.0083,-2.0083,-2.0103,-2.01,-2.0123,-2.0121,-2.0158,-2.0153,-2.0154,-2.0152,-2.0178,-2.0175,-2.0262,-2.0273,-2.0198,-2.0198,-2.0199,0,-2.0008,-2.003,-2.0038,-2.005,-2.0055,-2.0075,-2.0086,-2.0079,-2.0092,-2.0105,-2.0121,-2.014,-2.0155,-2.0188,-2.019,-2.0207,-2.0202,-2.0231,-2.0204,-2.0205,-2.0201,-2.0199,-2.02,-2.0236,-2.0237,-2.0238,-2.0238,0,-2.0077,-2.0074,-2.0091,-2.0107,-2.0121,-2.0133,-2.0144,-2.0155,-2.0149,-2.0164,-2.0184,-2.0196,-2.0219,-2.0238,-2.0254,-2.0259,-2.0248,-2.0247,-2.0253,-2.0255,-2.0254,-2.0254,-2.0167,-2.0245,-2.0244,-2.0243,-2.0243,-2.0243,-2.0127,-2.0144,-2.0153,-2.0172,-2.0179,-2.019,-2.0207,-2.0208,-2.0225,-2.0243,-2.0239,-2.0262,-2.0271,-2.0292,-2.0299,-2.0317,-2.0306,-2.0316,-2.0318,-2.032,-2.0322,-2.0253,-2.032,-2.032,-2.0319,-2.0319,-2.0319,0,-2.0193,-2.0198,-2.0215,-2.0231,-2.0246,-2.0234,-2.0246,-2.0259,-2.0279,-2.0289,-2.0303,-2.0327,-2.0345,-2.0349,-2.0366,-2.038,-2.0375,-2.0385,-2.0383,-2.0384,-2.0332,-2.0324,-2.0388,-2.0388,-2.0388,-2.0388,-2.0388,-2.0388,-2.023,-2.0259,-2.0258,-2.0291,-2.0295,-2.0317,-2.0325,-2.0335,-2.0342,-2.0369,-2.0384,-2.0386,-2.0393,-2.0411,-2.0427,-2.0428,-2.0434,-2.0445,-2.0444,-2.0395,-2.0388,-2.0381,-2.0373,-2.0447,-2.0447,-2.0494,-2.0495,-2.0495]},{"header":{"parameterUnit":"m.s-1","parameterCategory":1,"la1":30.2991,"la2":30.254,"lo1":-89.0895,"lo2":-89.0444,"dy":0.0017,"dx":0.0017,"nx":28,"ny":28,"refTime":"2024-06-02T09:00:00:Z","depth":0,"parameterNumber":3,"parameterNumberName":"V-component_of_WINDS"},"data":[0,0,0,0,0,0,0,0,0,0,0,0,0,0,0,0,0,0,0,0,0,0,0,0,0,0,0,0,0,0,0,0,0,0,0,0,0,0,0,0,0,0,0,0,0,0,0,0,0,0,0,0,0,0,0,0,0,0,3.213,3.213,0,3.2143,3.2143,3.2143,3.2096,3.2095,3.2093,3.2092,3.2104,3.2106,3.2108,0,0,0,0,0,0,0,0,0,0,0,0,0,3.2062,3.2064,3.213,3.213,3.213,3.2143,3.2143,3.2144,3.2096,3.2094,3.2093,3.2091,3.2104,3.2106,3.2108,0,0,0,0,0,0,0,0,0,0,0,0,0,3.2085,3.2064,3.213,3.2108,3.2107,3.2143,3.2143,3.2144,3.2097,3.2094,3.2092,3.209,3.2103,3.2106,3.2108,3.2166,0,0,3.2116,3.2117,0,0,0,0,0,0,0,0,3.2084,3.2088,3.2111,3.211,3.2108,3.2116,3.2124,3.2151,3.2097,3.21,3.2092,3.2089,3.211,3.2112,3.2119,3.2167,3.2167,3.2116,3.2117,3.2118,3.2119,0,0,0,0,0,0,0,3.2082,3.2087,3.2135,3.2112,3.211,3.2097,3.2098,3.2129,3.2117,3.21,3.2096,3.2099,3.2108,3.2116,3.2119,3.2167,3.2116,3.2118,3.212,3.2121,3.2261,3.2263,0,0,0,0,0,0,3.2084,3.2086,3.2135,3.2136,3.209,3.21,3.2101,3.2115,3.2116,3.2114,3.2101,3.2096,3.2113,3.2116,3.2119,3.2185,3.2118,3.2121,3.2122,3.2259,3.2262,3.2264,0,0,0,0,0,0,3.2083,3.2089,3.2134,3.211,3.2115,3.2104,3.212,3.2117,3.2125,3.2117,3.2114,3.2111,3.2112,3.2115,3.2154,3.2185,3.2122,3.2124,3.2256,3.226,3.2263,3.232,0,0,0,0,0,0,3.2081,3.2088,3.2111,3.2111,3.2116,3.217,3.2122,3.2119,3.2129,3.2124,3.2126,3.2124,3.211,3.2151,3.2157,3.2187,3.2126,3.2253,3.2258,3.2262,3.2315,3.2324,3.2333,0,0,0,0,0,3.2079,3.2127,3.2112,3.2119,3.2144,3.2172,3.2175,3.2158,3.2132,3.2154,3.2149,3.2124,3.2181,3.2155,3.2161,3.2193,3.2251,3.2257,3.2261,3.2311,3.2323,3.2332,0,0,0,0,0,0,3.2131,3.2126,3.211,3.216,3.2167,3.2164,3.2191,3.2171,3.2186,3.218,3.2158,3.2159,3.2201,3.2201,3.2173,3.2248,3.2212,3.2218,3.2247,3.2258,3.2267,3.2265,3.2128,0,0,0,0,0,3.2148,3.2172,3.2166,3.2211,3.2215,3.2203,3.2214,3.22,3.2206,3.2209,3.2207,3.2213,3.2232,3.2245,3.2262,3.2315,3.2314,3.234,3.2349,3.2356,3.2362,3.2387,3.2399,3.2281,3.2281,3.228,0,0,3.2185,3.2185,3.2201,3.2221,3.2225,3.2249,3.2205,3.2233,3.225,3.2213,3.2249,3.2248,3.2253,3.2299,3.2319,3.23,3.2394,3.2362,3.2368,3.237,3.2394,3.2405,3.2415,3.2284,3.2283,3.2283,0,0,3.2262,3.2266,3.2302,3.2306,3.2312,3.2303,3.2312,3.2312,3.2309,3.2345,3.2317,3.2338,3.2371,3.2376,3.2383,3.2461,3.2438,3.2467,3.2513,3.2539,3.2548,3.2556,3.2582,3.2592,3.2473,3.2473,3.2473,0,3.2306,3.2342,3.2323,3.2352,3.2361,3.2328,3.2364,3.2369,3.2381,3.2387,3.2366,3.2407,3.2408,3.2453,3.2472,3.248,3.2488,3.2466,3.2548,3.2556,3.2563,3.2588,3.2598,3.2476,3.2476,3.2476,3.2475,0,3.2395,3.242,3.2448,3.2459,3.2472,3.2504,3.2489,3.2504,3.2489,3.2482,3.2518,3.2519,3.2535,3.2545,3.2531,3.2588,3.2576,3.2552,3.2514,3.2578,3.2601,3.2611,3.2481,3.248,3.2479,3.2478,0,0,3.2507,3.2506,3.2517,3.252,3.2524,3.2542,3.2573,3.2588,3.26,3.2609,3.2633,3.2662,3.2639,3.2647,3.2633,3.2656,3.2715,3.2629,3.2628,3.2644,3.2776,3.2793,3.2805,3.2701,3.2703,3.2704,3.2775,0,3.2582,3.2634,3.2617,3.2669,3.2691,3.2659,3.2685,3.269,3.2684,3.2701,3.2695,3.2715,3.2685,3.2689,3.271,3.2704,3.2742,3.2699,3.2722,3.2723,3.272,3.2817,3.2835,3.2903,3.2784,3.2786,3.2787,0,3.2677,3.2688,3.2743,3.274,3.2749,3.2773,3.2784,3.2802,3.2806,3.28,3.2808,3.2789,3.2817,3.278,3.2819,3.279,3.2798,3.2797,3.2799,3.28,3.2758,3.2819,3.2924,3.2934,3.2801,3.28,3.2799,0,3.2751,3.278,3.2816,3.282,3.2819,3.2836,3.2837,3.2838,3.2848,3.2859,3.2864,3.2878,3.2886,3.2897,3.2881,3.2856,3.2922,3.2884,3.2917,3.2917,3.2931,3.293,3.3038,3.2939,3.2939,3.2939,3.2938,0,3.2836,3.287,3.2849,3.2871,3.2907,3.2887,3.2924,3.2921,3.2922,3.2942,3.2917,3.2936,3.2915,3.2932,3.2921,3.2953,3.2957,3.2952,3.2949,3.2954,3.2955,3.2959,3.2953,3.2941,3.2941,3.294,3.294,0,3.2925,3.2913,3.2949,3.2945,3.2944,3.2971,3.2967,3.2986,3.2978,3.3004,3.3009,3.2996,3.3015,3.3001,3.302,3.3012,3.3055,3.3045,3.3053,3.305,3.3083,3.308,3.3196,3.321,3.3104,3.3105,3.3106,0,3.298,3.3005,3.3003,3.3014,3.3016,3.3035,3.3045,3.3025,3.3036,3.3042,3.306,3.3077,3.3089,3.312,3.3112,3.3126,3.3116,3.3156,3.3118,3.3122,3.3115,3.3113,3.3115,3.3163,3.3164,3.3165,3.3166,0,3.3078,3.307,3.3085,3.3097,3.3109,3.3118,3.3124,3.3135,3.3115,3.3129,3.3147,3.3157,3.3175,3.3191,3.3202,3.3202,3.3181,3.3178,3.3186,3.3192,3.3195,3.3192,3.3073,3.3175,3.3175,3.3174,3.3173,3.3173,3.3151,3.3171,3.3172,3.3189,3.3192,3.3198,3.3216,3.3209,3.3224,3.3237,3.3225,3.3247,3.3249,3.3261,3.3263,3.328,3.3263,3.3276,3.3278,3.3281,3.3285,3.3193,3.3282,3.3282,3.3281,3.3281,3.3281,0,3.3247,3.3245,3.3261,3.327,3.3283,3.3262,3.3267,3.3279,3.3299,3.3302,3.3314,3.3335,3.335,3.3343,3.3356,3.3371,3.3361,3.3375,3.3373,3.3373,3.33,3.3291,3.3382,3.3382,3.3382,3.3382,3.3382,3.3382,3.3298,3.333,3.3322,3.3355,3.3353,3.3374,3.3379,3.3384,3.3387,3.341,3.3423,3.3418,3.3417,3.3429,3.3442,3.344,3.3445,3.3462,3.3456,3.3388,3.3378,3.3369,3.336,3.3464,3.3464,3.3527,3.3528,3.3528]}]]